MST,Max TemperatureF,Mean TemperatureF,Min TemperatureF,Max Dew PointF,MeanDew PointF,Min DewpointF,Max Humidity, Mean Humidity, Min Humidity, Max Sea Level PressureIn, Mean Sea Level PressureIn, Min Sea Level PressureIn, Max VisibilityMiles, Mean VisibilityMiles, Min VisibilityMiles, Max Wind SpeedMPH, Mean Wind SpeedMPH, Max Gust SpeedMPH,PrecipitationIn, CloudCover, Events, WindDirDegrees
2012-12-1,59,45,31,29,27,24,64,47,30,30.10,30.04,29.96,10,10,10,21,6,28,0.00,2,,178
2012-12-2,59,42,24,28,24,21,88,56,24,30.15,29.98,29.84,10,10,10,26,6,33,0.00,1,,206
2012-12-3,50,39,27,36,29,21,92,64,36,30.36,30.11,29.84,10,10,8,32,5,41,0.04,3,Rain,265
2012-12-4,46,33,20,24,21,17,88,63,37,30.54,30.46,30.35,10,10,10,8,2,8,0.00,2,,120
2012-12-5,43,33,23,28,23,19,88,67,45,30.40,30.24,30.08,10,10,10,9,2,10,0.00,5,,167
2012-12-6,50,39,28,34,30,25,85,71,56,30.07,30.00,29.90,10,10,10,9,2,9,T,5,Rain,168
2012-12-7,47,38,29,32,27,18,92,66,40,30.04,29.97,29.91,10,10,8,9,2,13,T,7,,69
2012-12-8,47,37,26,24,19,10,81,56,31,30.00,29.87,29.73,10,10,10,25,10,38,T,5,,297
2012-12-9,29,19,9,10,1,-7,63,43,23,30.41,30.22,30.00,10,10,8,20,7,24,T,3,Snow,293
2012-12-10,20,14,7,16,12,0,92,73,53,30.41,30.17,30.07,10,4,0,8,1,8,0.01,8,Fog-Snow,111
2012-12-11,28,17,6,17,11,3,88,78,68,30.33,30.22,30.09,10,9,2,9,1,10,T,5,Snow,110
2012-12-12,37,23,9,23,16,6,92,74,56,30.19,30.10,30.01,10,10,10,8,1,10,0.00,0,,90
2012-12-13,51,37,22,24,21,18,81,55,29,30.12,30.01,29.90,10,10,10,8,2,9,0.00,0,,176
2012-12-14,41,33,24,32,27,18,96,72,48,29.87,29.72,29.55,10,6,2,18,2,21,T,6,Rain-Snow,238
2012-12-15,37,33,28,32,29,25,100,82,64,29.87,29.82,29.79,10,6,1,21,5,23,T,7,Snow,224
2012-12-16,36,32,27,28,26,22,100,78,56,30.02,29.86,29.78,10,7,1,25,6,32,T,8,Snow,240
2012-12-17,38,33,27,25,24,22,92,73,54,30.01,29.91,29.81,10,10,9,24,7,33,T,6,Snow,233
2012-12-18,38,31,23,30,26,20,89,74,59,29.81,29.66,29.54,10,8,0,29,8,37,0.00,8,Fog-Snow,310
2012-12-19,26,11,-4,21,12,-9,88,64,40,30.64,29.83,29.55,10,5,0,25,10,32,0.06,6,Fog-Snow,292
2012-12-20,19,4,-11,-1,-8,-16,82,61,39,30.93,30.79,30.68,10,10,10,8,2,9,0.00,0,,132
2012-12-21,23,9,-6,8,-2,-11,87,70,52,30.77,30.63,30.50,10,10,10,6,1,8,0.00,0,,124
2012-12-22,23,10,-3,10,2,-7,91,77,62,30.58,30.45,30.32,10,10,10,7,1,8,0.00,0,,127
2012-12-23,32,20,8,15,11,5,84,67,49,30.36,30.25,30.13,10,10,10,7,1,8,0.00,3,,160
2012-12-24,30,24,17,28,25,14,100,85,69,30.08,29.80,29.68,10,3,0,29,3,33,0.00,8,Fog-Snow,273
2012-12-25,29,17,5,15,10,1,80,63,46,30.27,30.16,29.93,10,10,10,24,5,31,0.00,3,,226
2012-12-26,29,18,6,22,17,3,88,71,53,30.17,29.83,29.68,10,5,1,7,2,8,T,7,Snow,108
2012-12-27,29,24,19,22,20,10,88,74,60,30.03,29.81,29.69,10,8,1,17,6,21,T,8,Snow,271
2012-12-28,24,13,1,12,5,-2,95,79,62,30.54,30.27,30.06,10,8,2,8,2,9,T,4,Snow,105
2012-12-29,18,7,-5,5,-2,-9,87,71,54,30.61,30.47,30.34,10,10,10,8,2,9,0.00,0,,145
2012-12-30,23,10,-3,18,8,-6,91,74,56,30.35,30.14,29.87,10,8,2,6,1,6,T,5,Snow,98
2012-12-31,25,13,0,19,14,-1,92,75,57,30.31,29.98,29.85,10,5,1,9,2,12,0.09,6,Snow,273